Tracking 20241 objects as of 25-Jan-2020
HD Live streaming from Space Station
objects crossing your sky now

COSMOS 2251 DEB

Track COSMOS 2251 DEB now!
10-day predictions


NORAD ID: 34682
Int'l Code: 1993-036YC
Perigee: 729.4 km
Apogee: 761.1 km
Inclination: 74.0 °
Period: 99.6 minutes
Semi major axis: 7116 km
RCS: 0.0176 m2 (small)
Launch date: June 16, 1993
Source: Commonwealth of Independent States (former USSR) (CIS)
Launch site: PLESETSK MISSILE AND SPACE COMPLEX (PKMTR)

Note: This is SATELLITE DEBRIS
aabbcc
Your satellite tracking list
Your tracking list is empty




NASA's NSSDC Master Catalog

Two Line Element Set (TLE):
1 34682U 93036YC  20024.46251944  .00000223  00000-0  69714-4 0  9995
2 34682  74.0436 156.4076 0022264 100.1811 326.2456 14.46192679575369
Source of the keplerian elements: AFSPC